Location: Garbet
(42.8837°N, 1.2115°E)
Time: 04:48:06
(UTC+00:00)

Cosmos 1953 Rocket - Pass Details

Date: 18 March 2026
Orbit: 599 x 626 km, 82.5° (Epoch: 15 April)

Event Time Altitude Azimuth Distance (km) Brightness Sun altitude
Rises 04:27:39 0° 8° (N) 2,891 7.3 -18.0°
Reaches altitude 10° 04:30:38 10° 30° (NNE) 1,986 6.8 -17.4°
Maximum altitude 04:33:25 16° 70° (ENE) 1,610 6.8 -16.9°
Drops below altitude 10° 04:36:12 10° 109° (ESE) 1,986 7.0 -16.4°
Sets 04:39:11 0° 131° (SE) 2,891 7.5 -15.9°
